Regional Weather Roundup
Issued by NWS Northern Indiana

Home | Current Version | Previous Version | Text Only | Print | Product List | Glossary Off
Versions: 1 2 3 4 5 6 7 8 9 10 11 12 13 14 15 16 17 18 19 20 21 22 23 24 25 26 27 28 29 30 31 32 33 34 35 36 37 38 39 40 41 42 43 44 45 46 47 48 49 50

000
ASUS43 KIWX 061800
RWRIWX

KIWX WEATHER ROUNDUP
NATIONAL WEATHER SERVICE NORTHERN INDIANA
200 PM EDT FRI MAY 06 2016

NOTE: "FAIR" INDICATES FEW OR NO CLOUDS BELOW 12,000 FEET WITH NO
SIGNIFICANT WEATHER AND/OR OBSTRUCTIONS TO VISIBILITY.

* THESE STATIONS ARE NOT UNDER NWS QUALITY CONTROL. THEY ALSO MAY NOT
  REPORT WEATHER SUCH AS PRECIPITATION OR FOG.

INZ001>027-061900-
NORTHERN INDIANA

CITY           SKY/WX    TMP DP  RH WIND       PRES   REMARKS
GARY*          MOSUNNY  N/A N/A N/A W8        29.94F
SOUTH BEND     SUNNY     68  38  33 W3        29.95F
6HR MIN TEMP:  40; 6HR MAX TEMP:  69;

ELKHART*       SUNNY     68  48  49 W6        29.96F
GOSHEN         SUNNY     67  45  45 W8        29.96F
6HR MIN TEMP:  43; 6HR MAX TEMP:  67;

ANGOLA*          N/A     68  34  28 VRB3      29.95F
FORT WAYNE     MOSUNNY   67  41  38 W7        29.97F
6HR MIN TEMP:  47; 6HR MAX TEMP:  68;


$$
INZ028>050-061900-
CENTRAL INDIANA

CITY           SKY/WX    TMP DP  RH WIND       PRES   REMARKS
LAFAYETTE      SUNNY     70  40  33 VRB3      29.97F
6HR MIN TEMP:  41; 6HR MAX TEMP:  70;

KOKOMO*        SUNNY     66  45  45 NW9       29.98F
6HR MIN TEMP:  45; 6HR MAX TEMP:  66;

MUNCIE*        SUNNY     67  43  41 NW9       29.97F
6HR MIN TEMP:  47; 6HR MAX TEMP:  68;

INDIANAPOLIS   MOSUNNY   68  41  37 NW10      29.98F
6HR MIN TEMP:  47; 6HR MAX TEMP:  68;


$$
MIZ043>046-050>051-056>058-064>065-071>073-077>080-061900-
SOUTHWEST LOWER MICHIGAN

CITY           SKY/WX    TMP DP  RH WIND       PRES   REMARKS
BATTLE CREEK   SUNNY     68  37  32 CALM      29.94F
6HR MIN TEMP:  45; 6HR MAX TEMP:  68;

BENTON HARBOR  SUNNY     67  41  38 W6        29.95F
6HR MIN TEMP:  40; 6HR MAX TEMP:  68;

COLDWATER*     SUNNY     67  34  29 CALM      29.95F
6HR MIN TEMP:  44; 6HR MAX TEMP:  67;

HILLSDALE*     SUNNY     65  35  32 SE3       29.94F
6HR MIN TEMP:  46; 6HR MAX TEMP:  66;

HOLLAND        SUNNY     69  39  33 W10       29.94F
GRAND RAPIDS   MOSUNNY   70  42  36 W7        29.93F
6HR MIN TEMP:  45; 6HR MAX TEMP:  70;

KALAMAZOO      SUNNY     70  38  31 CALM      29.94F
6HR MIN TEMP:  43; 6HR MAX TEMP:  70;

STURGIS*       SUNNY     66  40  38 W5        29.94F
6HR MIN TEMP:  44; 6HR MAX TEMP:  67;

THREE RIVERS*  FAIR      70  38  31 NW6       29.95F
6HR MIN TEMP:  45; 6HR MAX TEMP:  70;


$$
OHZ001>008-015>018-024>025-061900-
NORTHWEST OHIO

CITY           SKY/WX    TMP DP  RH WIND       PRES   REMARKS
DEFIANCE       SUNNY     68  42  38 SW8       29.95F
6HR MIN TEMP:  50; 6HR MAX TEMP:  69;

FINDLAY        SUNNY     68  39  34 NW8       29.93F
6HR MIN TEMP:  50; 6HR MAX TEMP:  68;

TOLEDO EXPRESS SUNNY     68  39  34 NW7       29.93F
6HR MIN TEMP:  50; 6HR MAX TEMP:  68;

TOLEDO METCALF MOSUNNY   69  41  36 N8        29.94F
6HR MIN TEMP:  51; 6HR MAX TEMP:  69;

LIMA           SUNNY     65  43  44 NW12      29.95F
6HR MIN TEMP:  48; 6HR MAX TEMP:  65;


$$
AND FOR LAKE MICHIGAN COASTAL AND OPEN LAKE BUOY OBSERVATIONS

STATION/POSITION TEMP    WIND        PRES    VSBY  WAVE
                 AIR SEA DIR/SP/G                  HT/PER
                 (F)     (DEG/KT/KT) (MB)    (MI)  (FT/S)
CALUMET HARBOR    69     190/  7/ 13 1013.8F
MICHIGAN CITY     60     230/  4/  4   N/A
BURNS HARBOR      63     330/  2/  4 1015.6F
SAINT JOSEPH      53     180/  8/  9 1015.2F
SOUTH LAKE BUOY   44 41  160/ 10/ 12 1014.1          0
4 MI NW BRIDGMAN  52 33                N/A           1

$$
&&



USA.gov is the U.S. government's official web portal to all federal, state and local government web resources and services.